SCP
1 2 1 1 1 1 1 1 1 0 0 0 1 1 1 1 1 1 1 1 1 1 1 0 1 1 1 1 1 1 1 1 1 1 1 1 1 1
1 1 1 1 1 1 1 1 1 1 0 1 1 1 1 1 1 1 1 1 1 1 1 0 0 0 1 1 1 1 1 1 1 1 1 1 1 1
1 1 2 2 2 1 1 1 1 1 1 1 1 1 1 1 1 1 1 1 1 1 0 0 0 0 0 0 0 0 0 1 1 1 1 1 1 1
1 1 2 2 2 2 2 1 1 1 1 1 1 1 1 1 1 1 1 0 0 0 0 0 0 0 0 0 0 0 0 0 0 0 0 0 0 1
2 2 2 3 3 3 3 2 2 1 1 1 1 1 1 1 1 1 1 1 0 0 0 0 0 0 0 0 0 0 0 0 0 0 0 0 0 0
2 2 3 3 4 4 4 3 3 2 2 1 1 1 1 1 1 1 1 1 0 0 0 0 0 0 0 0 0 0 0 0 0 0 0 0 0 0
3 3 3 3 3 3 3 3 3 3 2 1 1 1 1 1 1 1 1 1 0 0 0 1 1 1 1 1 0 0 0 0 0 0 0 0 0 0
3 3 3 2 2 1 1 1 1 2 2 1 1 1 1 1 1 1 1 1 1 0 0 0 1 1 2 2 1 0 0 0 0 0 0 0 0 0
3 3 2 2 1 1 1 0 0 1 1 1 1 1 1 1 1 1 1 1 1 1 1 0 0 1 1 2 1 0 0 0 0 0 0 0 0 0
2 2 1 1 1 1 1 1 1 0 0 0 1 1 1 1 1 1 1 1 1 1 1 0 0 0 1 1 1 0 0 0 0 0 0 0 0 0
1 1 1 1 0 0 0 1 1 0 0 0 0 0 0 0 1 1 1 1 1 1 1 1 0 0 1 1 1 1 0 0 0 0 0 0 0 0
1 1 1 0 0 0 0 0 0 0 1 1 0 0 0 0 0 0 1 1 0 0 1 1 1 1 1 1 1 1 1 0 0 0 0 0 0 0
1 1 1 0 0 0 0 0 0 0 1 1 1 1 1 1 1 1 1 1 1 1 1 1 1 1 1 1 1 1 1 2 1 1 0 0 0 0
1 1 1 0 0 0 0 0 0 0 0 1 1 1 1 1 1 1 1 1 1 1 1 1 1 1 1 1 1 1 2 2 2 2 2 1 0 0
1 0 0 0 0 0 0 0 0 0 0 1 1 1 1 1 1 1 1 1 1 1 1 1 1 1 1 1 1 1 1 2 2 2 2 2 1 1
0 0 0 0 0 0 0 0 0 0 1 1 1 1 1 1 2 2 1 1 1 1 1 1 1 1 1 1 1 1 1 1 2 2 2 2 1 1
0 0 0 0 0 0 0 1 1 1 1 1 1 1 1 1 1 1 1 1 1 1 1 1 1 1 1 1 1 1 1 1 1 2 2 2 1 1
0 0 1 1 1 1 1 1 1 1 1 1 1 1 1 1 1 1 1 1 1 1 1 1 1 1 1 1 1 1 1 1 1 1 2 1 1 1
0 0 1 1 1 1 1 1 1 1 1 1 1 1 1 1 1 0 0 1 0 0 0 1 1 1 0 0 1 1 1 1 1 1 1 1 1 1
0 0 1 1 2 2 1 1 1 1 1 1 1 1 1 0 0 0 1 1 0 0 0 1 1 0 0 0 1 1 1 1 1 1 1 1 1 1
0 1 1 1 1 1 1 1 1 1 1 1 1 1 1 1 1 1 1 0 0 0 0 0 0 0 0 0 1 1 1 1 1 1 1 1 1 1
1 1 1 1 1 1 1 1 1 1 1 1 1 1 1 1 1 1 0 0 0 0 0 0 0 0 0 0 0 0 1 0 0 1 0 0 0 0
1 1 1 1 1 1 1 1 1 1 1 1 1 1 1 1 1 1 0 0 0 0 0 0 0 0 0 0 0 0 0 1 0 0 0 0 0 0
Wind_Speed
3 3 4 4 4 5 5 6 7 8 7 4 4 3 4 4 2 6 7 3 6 8 9 10 10 11 11 13 14 16 16 17 17 18 19 21 21 21
3 4 5 5 4 5 5 6 6 8 8 6 5 5 4 7 4 7 8 6 10 11 10 10 11 11 12 13 14 14 15 16 17 18 19 19 19 20
4 4 5 5 5 6 5 6 6 7 8 8 7 6 6 8 8 7 8 8 8 10 10 9 10 11 12 13 13 14 15 16 17 17 18 18 19 20
5 5 6 5 5 7 6 7 6 6 9 10 8 8 8 8 8 8 9 8 8 6 9 10 10 10 11 11 13 14 14 15 16 17 17 18 19 20
5 6 6 6 7 6 7 7 7 7 7 9 10 7 8 7 8 9 10 7 9 8 10 12 12 11 11 12 12 12 13 14 15 16 16 17 18 19
6 7 7 7 7 7 7 8 8 8 8 9 9 8 8 7 7 8 8 7 7 8 8 7 9 12 13 13 14 14 14 14 15 16 16 16 17 18
7 8 8 6 6 7 8 8 8 8 9 9 9 8 8 7 7 7 8 8 8 8 8 8 8 9 11 14 16 15 15 14 15 15 16 16 17 17
8 8 8 8 9 12 12 12 11 11 11 10 10 9 9 9 8 8 9 9 9 6 7 8 8 9 9 10 11 14 15 14 15 15 15 16 17 17
8 8 8 6 6 9 9 14 15 17 16 13 14 13 12 10 10 11 10 10 10 8 8 10 9 10 9 9 9 12 14 14 14 15 15 15 16 17
9 9 9 9 8 7 10 11 11 11 12 13 13 13 13 11 10 11 12 12 12 11 10 11 10 10 9 8 9 13 14 14 15 15 15 15 15 16
9 9 10 10 5 5 10 12 12 12 11 14 14 14 13 12 11 10 11 11 11 10 9 10 10 10 9 10 9 14 14 14 15 15 15 15 15 14
8 9 10 11 7 6 10 12 13 12 12 10 11 14 15 15 16 14 12 12 11 11 8 8 9 9 10 9 8 8 10 13 15 15 15 15 13 10
8 8 6 9 10 10 11 12 13 12 13 13 12 12 11 10 11 12 12 11 12 12 9 7 9 9 10 9 8 8 8 8 9 11 14 16 15 13
10 9 6 4 8 10 11 12 12 10 11 12 11 11 10 9 9 9 10 12 12 14 12 11 10 10 10 11 10 8 7 7 8 8 9 11 14 16
10 9 10 8 9 11 14 15 12 10 10 11 11 10 9 9 9 8 10 11 13 14 14 14 13 11 11 12 11 10 9 8 8 8 8 8 9 9
10 10 12 15 13 13 11 10 10 9 9 10 10 10 9 8 8 8 8 9 9 10 12 14 14 14 13 13 12 11 10 9 8 8 8 8 9 9
8 9 10 9 9 8 8 8 8 8 8 9 9 9 9 9 9 8 8 9 10 10 10 8 11 12 14 13 12 12 11 10 10 8 8 9 9 9
7 11 11 10 10 9 9 8 8 8 8 7 8 8 9 9 9 8 8 9 10 10 10 9 8 8 10 11 13 14 12 11 10 9 9 10 10 9
9 11 11 10 10 10 9 9 9 8 7 8 8 8 8 8 8 8 8 9 9 10 10 9 8 9 11 12 11 13 12 10 9 9 9 9 10 8
10 10 10 10 9 9 9 9 9 8 7 8 9 9 8 8 8 9 9 10 9 9 9 9 9 10 11 11 10 8 12 11 9 9 9 8 7 5
9 9 9 9 9 9 9 9 9 9 8 8 9 9 8 8 9 9 9 9 10 10 10 9 8 9 9 9 10 10 8 10 10 8 8 7 7 7
9 9 9 9 9 9 8 8 9 9 8 8 8 7 7 8 9 10 9 9 8 9 10 9 8 7 8 10 11 11 9 7 7 7 7 7 7 7
9 9 9 10 9 8 8 8 10 8 8 8 7 7 7 7 7 8 8 9 9 9 9 9 8 7 9 10 10 10 11 8 6 6 6 6 8 8
Wind_Direction
286 271 280 294 283 288 287 287 292 294 290 275 264 283 283 288 296 280 280 240 235 248 248 245 244 242 239 235 230 227 226 226 226 227 228 225 222 221
286 301 293 288 296 282 280 280 280 285 290 294 289 285 306 299 274 280 275 262 239 236 239 242 242 240 238 235 232 229 226 225 224 224 225 225 224 222
279 277 278 291 289 291 281 276 274 277 282 286 287 286 278 278 288 287 279 272 258 219 223 236 241 241 238 236 233 230 228 226 225 224 224 224 224 223
278 280 277 272 272 276 284 281 280 282 279 288 291 285 277 273 271 275 276 271 273 230 211 228 237 239 239 238 237 234 232 229 227 226 225 225 224 225
275 276 277 277 273 276 275 278 279 273 273 279 282 285 279 273 275 270 269 267 270 256 215 219 227 232 236 238 237 235 233 230 228 227 227 226 226 226
270 272 272 271 272 277 272 269 274 280 274 271 276 280 275 272 268 270 270 260 261 270 264 248 229 225 231 232 231 231 231 230 229 228 227 227 227 227
269 268 268 268 284 279 285 290 286 280 281 278 278 279 280 284 280 281 279 278 265 260 264 259 246 239 229 224 227 229 228 228 229 229 229 229 229 230
272 273 270 241 235 230 244 259 271 277 282 286 283 283 286 285 287 284 284 281 277 267 269 269 263 260 252 242 220 213 221 226 228 230 231 232 231 230
274 275 277 280 260 263 243 230 240 241 246 265 277 280 284 285 288 283 276 279 282 287 280 272 266 261 258 253 213 209 218 224 228 231 232 233 232 232
268 269 271 277 275 275 281 277 271 260 244 242 257 267 274 282 281 277 280 274 267 259 255 264 266 264 261 257 222 211 219 226 230 232 233 232 231 231
264 265 267 270 259 234 266 273 276 276 259 239 246 258 269 271 270 273 268 267 268 265 250 254 263 266 265 257 240 210 215 224 229 231 233 233 233 232
266 260 243 243 255 225 259 271 275 279 287 281 253 246 251 250 235 241 257 263 268 270 261 254 262 267 268 258 250 233 223 222 224 228 229 230 228 230
280 278 273 199 223 232 246 264 272 284 285 280 275 268 259 254 246 236 238 251 262 266 268 261 265 265 266 271 267 256 252 246 229 226 223 224 220 222
276 280 288 200 228 241 245 255 262 270 269 270 270 269 267 264 261 256 250 250 255 263 273 276 271 268 271 270 268 263 254 252 250 247 238 214 214 220
270 282 288 273 259 253 242 242 248 252 259 265 269 272 274 274 273 267 258 252 251 252 254 252 254 257 259 264 268 267 266 258 247 247 243 234 227 219
256 263 247 246 245 259 265 241 239 252 262 269 274 278 280 277 269 265 263 261 259 257 247 243 244 250 254 256 261 263 260 260 256 247 247 246 238 234
309 281 274 269 263 259 261 261 260 257 251 258 267 271 272 270 267 261 258 260 260 262 262 251 239 238 247 256 259 257 258 257 256 254 250 249 243 237
277 271 273 273 275 276 277 274 265 262 262 263 263 265 268 269 268 264 258 255 257 260 263 262 254 249 247 245 238 253 256 254 253 251 250 251 247 236
250 265 271 274 275 276 275 274 274 272 266 263 263 263 265 266 265 264 261 257 256 258 261 261 255 251 254 258 245 221 244 253 251 248 247 248 251 245
252 266 272 274 275 275 276 276 275 272 264 261 259 259 260 261 263 262 259 257 259 261 261 257 251 248 252 265 275 258 224 242 249 248 248 251 252 244
274 275 278 279 278 277 279 277 274 271 269 264 262 261 262 261 261 262 262 260 258 260 260 259 256 251 261 266 264 260 248 225 241 249 250 249 249 241
286 286 284 282 281 278 278 276 274 272 270 265 266 266 263 262 264 265 266 266 261 260 264 266 261 250 249 251 256 261 260 242 221 225 242 251 254 253
290 292 291 287 282 276 274 274 273 273 272 271 271 270 268 264 265 268 268 268 268 268 267 266 261 254 253 254 256 259 258 252 243 234 233 231 232 243